Content
SEND FEEDBACK

Daily
Averages
Monthly
Summary
United Kingdom

NEWTOWNNARDS, NORTHERN IRELAND


Home > Europe > United Kingdom > Northern Ireland
Elevation: 112 feet     Latitude: 54 40N     Longitude: 005 35W

WEATHER
 
SELECT A DAY
Number of Records: 192,856;   Date Range: 7/1/96 - 9/29/14
 
SHARE

PRINT THIS DATA

[ ← Previous Day ]
WEATHER ALMANAC - JUNE 21, 2013
[ Next Day → ]
[ °C ]   °F
Weather ElementAverageHighLow
Temperature59.4 °F64.4 °F (2:20 pm)55.4 °F (6:50 am)
Dewpoint51 °F53.6 °F (8:20 pm)48.2 °F (10:20 am)
Humidity74.1 %94 % (8:50 pm)56 % (2:50 pm)
Barometer29.77 in29.83 in (6:50 am)29.62 in (8:50 pm)
Wind Speed10.1 mph17.3 mph (7:20 pm)
Weather ElementAverage
Visibility6.2 mi
Wind DirectionSSW (209.7 °)

Weather ElementTotal
Precipitation---
Heating Degree Days5.1 (Base 65)
Growing Degree Days9.9 (Base 50)
Averaged from 29 records on June 21, 2013
WEATHER CONDITIONS BREAKOUT
WIND DIRECTION BREAKOUT
WEATHER BY HOUR - JUNE 21, 2013
[ °C ]   °F
Local TimeTemperatureDewpointHumidityBarometerVisibilityWind DirectionWind SpeedGust SpeedPrecipitationEventsConditions
6:50 AM55.4 °F51.8 °F88 %29.83 in6.2 miNW (310°)9.2 mphRainLight Rain Showers
7:20 AM55.4 °F51.8 °F88 %29.83 in6.2 miNW (320°)8.1 mphMostly Cloudy
7:50 AM55.4 °F51.8 °F88 %29.83 in6.2 miNNW (330°)6.9 mphMostly Cloudy
8:20 AM57.2 °F51.8 °F82 %29.83 in6.2 miNW (320°)6.9 mphMostly Cloudy
8:50 AM57.2 °F51.8 °F82 %29.83 in6.2 miNW (310°)6.9 mphMostly Cloudy
9:20 AM57.2 °F50.0 °F77 %29.83 in6.2 miNW (320°)9.2 mphMostly Cloudy
9:50 AM60.8 °F51.8 °F72 %29.83 in6.2 miNW (320°)9.2 mphScattered Clouds
10:20 AM59.0 °F48.2 °F67 %29.83 in6.2 miNW (320°)9.2 mphScattered Clouds
10:50 AM59.0 °F48.2 °F67 %29.83 in6.2 miWNW (300°)6.9 mphMostly Cloudy
11:20 AM59.0 °F48.2 °F67 %29.80 in6.2 miNW (320°)5.8 mphRainLight Rain Showers
11:50 AM59.0 °F48.2 °F67 %29.80 in6.2 miNNW (340°)4.6 mphMostly Cloudy
12:20 PM59.0 °F50.0 °F72 %29.80 in6.2 miNNW (340°)8.1 mphMostly Cloudy
12:50 PM60.8 °F51.8 °F72 %29.80 in6.2 miNNW (330°)5.8 mphMostly Cloudy
1:20 PM59.0 °F50.0 °F72 %29.80 in6.2 miEast (80°)4.6 mphMostly Cloudy
1:50 PM62.6 °F50.0 °F63 %29.80 in6.2 miVariable3.5 mphMostly Cloudy
2:20 PM64.4 °F50.0 °F59 %29.77 in6.2 miVariable6.9 mphScattered Clouds
2:50 PM64.4 °F48.2 °F56 %29.77 in6.2 miVariable3.5 mphScattered Clouds
3:20 PM60.8 °F51.8 °F72 %29.77 in6.2 miESE (120°)12.7 mphScattered Clouds
3:50 PM60.8 °F51.8 °F72 %29.77 in6.2 miSSE (150°)15.0 mphScattered Clouds
4:20 PM62.6 °F51.8 °F68 %29.74 in6.2 miSSE (150°)13.8 mphScattered Clouds
4:50 PM60.8 °F51.8 °F72 %29.74 in6.2 miSE (130°)13.8 mphScattered Clouds
5:20 PM60.8 °F51.8 °F72 %29.71 in6.2 miSSE (150°)16.1 mphScattered Clouds
5:50 PM62.6 °F51.8 °F68 %29.71 in6.2 miSSE (150°)13.8 mphScattered Clouds
6:20 PM60.8 °F51.8 °F72 %29.68 in6.2 miSSE (160°)16.1 mphPartly Cloudy
6:50 PM60.8 °F51.8 °F72 %29.68 in6.2 miSouth (170°)15.0 mphPartly Cloudy
7:20 PM59.0 °F51.8 °F77 %29.68 in6.2 miSouth (170°)17.3 mphPartly Cloudy
7:50 PM57.2 °F51.8 °F82 %29.65 in6.2 miSSE (160°)16.1 mphRainLight Rain
8:20 PM57.2 °F53.6 °F88 %29.65 in6.2 miSSE (160°)12.7 mphRainLight Rain
8:50 PM55.4 °F53.6 °F94 %29.62 in6.2 miSSE (150°)13.8 mphRainLight Rain
Hourly data recorded from EGAC, located miles away from Newtownnards, Northern Ireland







STORIES FROM OUR PARTNERS